Regional Weather Roundup
Issued by NWS

Home | Current Version | Previous Version | Text Only | Print | Product List | Glossary On
Versions: 1 2 3 4 5 6 7 8 9 10 11 12 13 14 15 16 17 18 19 20 21 22 23 24 25 26 27 28 29 30 31 32 33 34 35 36 37 38 39 40 41 42 43 44 45 46 47 48 49 50
000
ASUS44 KMEG 012110
RWRTN
TENNESSEE HOURLY STATE WEATHER ROUNDUP
NATIONAL WEATHER SERVICE MEMPHIS TN
300 PM CST SUN FEB 01 2015

TNZ002-004-019-021-049-052-054-088>092-012200-
WEST TENNESSEE

CITY           SKY/WX    TMP DP  RH WIND       PRES   REMARKS
MEMPHIS INTL   LGT RAIN  57  54  88 W18G24    29.71R FOG
NWS MEMPHIS      N/A     58 N/A N/A MISG        N/A
JACKSON        HVY RAIN  54  52  93 SW9       29.67F FOG
DYERSBURG      CLOUDY   N/A N/A N/A W13G18    29.68F
UNION CITY     CLOUDY    52  52 100 SW13      29.65S
PARIS          CLOUDY    52  50  93 SW13      29.66R
LEXINGTON      CLOUDY    54  52  94 S13       29.66F
SAVANNAH       CLOUDY    54  54 100 S15       29.70F
$$

TNZ008-025-027-028-033-062-065-066-012200-
NORTH MIDDLE TENNESSEE

CITY           SKY/WX    TMP DP  RH WIND       PRES   REMARKS
NASHVILLE      LGT RAIN  54  52  94 S18G26    29.70F
CLARKSVILLE    LGT RAIN  52  50  93 S14       29.65F
SMYRNA         LGT RAIN  52  52 100 S12G18    29.72F FOG
COOKEVILLE     CLOUDY    48  46  93 S10       29.76F
CROSSVILLE     CLOUDY    47  43  86 S14G32    29.79F
$$

TNZ061-075-076-078-094-096-097-012200-
SOUTH MIDDLE TENNESSEE

CITY           SKY/WX    TMP DP  RH WIND       PRES   REMARKS
FAYETTEVILLE   CLOUDY    50  48  93 MISG      29.77F
TULLAHOMA      CLOUDY    52  48  87 S14G26    29.77F
WINCHESTER     CLOUDY    52  48  87 S15       29.80F
MCMINNVILLE    CLOUDY    54  52  94 S10       29.76F
COLUMBIA       CLOUDY   N/A N/A N/A S10       29.70F
SHELBYVILLE    CLOUDY    52  52 100 S16       29.75F
$$

TNZ017-018-042-046-047-012200-
NORTHEAST TENNESSEE

CITY           SKY/WX    TMP DP  RH WIND       PRES   REMARKS
TRI CITIES     LGT RAIN  52  35  52 S9        29.89F
ELIZABETHTON   LGT RAIN  50  28  43 E5        29.90F
$$

TNZ012-013-036-069-073-074-012200-
CENTRAL EAST TENNESSEE

CITY           SKY/WX    TMP DP  RH WIND       PRES   REMARKS
KNOXVILLE      LGT RAIN  44  39  82 NE5       29.86F
OAK RIDGE      LGT RAIN  44  41  89 SW3       29.87F FOG
GATLINBURG     CLOUDY    45  39  81 CALM      29.85F
MORRISTOWN     CLEAR     45  34  65 E3        29.86F
$$

TNZ083-085-099-012200-
SOUTHEAST TENNESSEE

CITY           SKY/WX    TMP DP  RH WIND       PRES   REMARKS
CHATTANOOGA    LGT RAIN  47  45  93 S5        29.88F FOG
$$

SKY/WX REPORTED AS FAIR MEANS FEW OR NO CLOUDS BELOW
12 THOUSAND FEET.



USA.gov is the U.S. government's official web portal to all federal, state and local government web resources and services.